{"data":{"norad_id":59632,"epoch":"2026-09-21T22:17:47.439456Z","epoch_age_seconds":44628,"freshness":"FRESH","line1":"1 59632U 24082B   26264.92902129  .00000304  00000+0  20560-4 0  9998","line2":"2 59632  43.0032  97.4432 0001149 265.5446  94.5274 15.27578565135028","mean_motion":15.27578565,"eccentricity":0.0001149,"inclination_deg":43.0032,"raan_deg":97.4432,"arg_perigee_deg":265.5446,"mean_anomaly_deg":94.5274,"bstar":2.056e-5,"rev_number":13502,"period_min":94.266837267385,"perigee_km":482.26504217311,"apogee_km":483.84174372541,"semimajor_km":6861.1903929493,"source":"CELESTRAK","updated_at":"2026-09-22T09:00:49.016713Z"}}